Simultaneous Nadir Overpasses (SNOs) Predictions

Prediction of SNOs between GOES-15 and METOP-A Satellite Orbit:

Table of predicted SNOs for the next 14.0 days since TLE Epoch: 2/7/2020
Index Date Time (GOES-15) GOES-15 Lat,Lon METOP-A Lat,Lon Distance(km) Time Diff (sec)
1 02/08/2020 17:34:51 0.02,-128.00 0.76,-131.39 386.55 80
2 02/09/2020 17:16:52 0.02,-127.96 -0.34,-126.41 177.14 80
3 02/11/2020 05:33:12 -0.02,-127.91 -0.68,-131.03 354.71 80
4 02/12/2020 05:15:12 -0.02,-127.88 0.37,-126.04 209.02 80
5 02/13/2020 17:34:04 0.02,-127.81 0.63,-130.64 321.12 80
6 02/14/2020 17:10:45 0.02,-127.78 -0.48,-125.65 242.22 80
7 02/16/2020 05:29:44 -0.01,-127.72 -0.60,-130.27 290.58 80
8 02/17/2020 05:11:44 -0.01,-127.68 0.51,-125.29 272.44 80
9 02/18/2020 17:30:37 0.00,-127.61 0.48,-129.88 258.67 80
10 02/19/2020 17:07:16 0.00,-127.56 -0.56,-124.89 304.09 80
11 02/21/2020 05:26:17 0.00,-127.50 -0.45,-129.52 229.47 80




NCC Satellite Simultaneous Nadir Overpasses (SNOs) Prediction Service
